x

Barcelona Harbor, Ny (barn6) Weather Station

11:02am - Sat 25th Oct 2014 All times are CDT. -5 hours from GMT.

  • Wind
    18mph, 30mph gusts
  • Air Temp 63°f
  • Sea Pressure 1006.8mb
  • Barcelona Harbor, Ny
  • Barcelona Harbor, Ny

More Historic Weather Station data

Upgrade to MSW Pro to gain access to the past 30 days of data for over 8000 Wavebouys and Weather Stations around the globe.

Join Pro

Comparision Forecast

View Surf forecast
   
Sat 10/25 11:02am 18 30 mph 1006.8mb 63f
12:13am 8 11 mph 1014.2mb 56f
Fri 10/24 8:20pm 11 14 mph - 55f
7:00pm 7 9 mph 1015.6mb 53f
6:50pm 7 9 mph 1015.9mb 53f
6:40pm 7 9 mph 1015.9mb 53f
6:30pm 7 9 mph 1015.9mb 53f
6:20pm 7 10 mph 1015.9mb 53f
6:10pm 7 21 mph 1015.9mb 55f
4:00pm 13 15 mph 1015.2mb 55f
3:50pm 13 14 mph 1015.2mb 55f
3:40pm 13 16 mph - 55f
3:30pm 14 16 mph 1015.9mb 55f
3:20pm 13 14 mph 1015.9mb 55f
3:10pm 13 14 mph 1015.9mb 54f
3:00pm 13 14 mph 1015.9mb 54f
2:50pm 11 15 mph 1015.9mb 54f
2:40pm 13 14 mph 1016.3mb 54f
2:39pm 13 14 mph 1016.3mb 54f
2:30pm 11 14 mph 1016.3mb 54f
2:20pm 10 14 mph 1016.6mb 54f
2:10pm 10 14 mph 1016.9mb 54f
Thu 10/23 9:00pm 13 14 mph 1018.3mb 58f
8:50pm 14 15 mph 1017.9mb 58f
8:40pm 14 16 mph 1017.9mb 58f
8:30pm 14 15 mph 1017.9mb 59f
8:20pm 13 16 mph 1017.9mb 58f
8:10pm 14 17 mph 1017.9mb 59f
8:00pm 13 16 mph 1017.9mb 59f
7:50pm 10 14 mph 1017.9mb 56f
7:40pm 14 17 mph 1017.9mb 56f
7:30pm 10 15 mph 1018.3mb 55f
7:20pm 13 15 mph 1017.9mb 55f
7:10pm 13 15 mph 1017.9mb 54f
7:00pm 10 14 mph 1017.9mb 54f
6:50pm 9 14 mph 1018.3mb 54f
6:40pm 8 11 mph 1018.3mb 54f
6:30pm 9 14 mph 1018.3mb 54f
6:20pm 10 14 mph 1018.3mb 54f
6:10pm 10 15 mph 1018.3mb 54f
6:00pm 11 14 mph 1018.3mb 55f
5:50pm 11 16 mph 1018.3mb 55f
5:40pm 10 17 mph 1018.3mb 55f
5:30pm 11 20 mph 1018.6mb 56f
5:20pm 15 20 mph 1018.3mb 56f
5:10pm 15 18 mph 1018.3mb 56f
5:00pm 17 20 mph 1018.3mb 56f
4:50pm 16 18 mph 1018.3mb 56f
4:40pm 14 17 mph 1018.6mb 56f
4:30pm 16 18 mph 1018.6mb 56f
4:20pm 16 20 mph 1018.6mb 56f
4:10pm 15 18 mph 1018.6mb 56f
4:00pm 17 20 mph 1018.6mb 56f
3:50pm 17 20 mph 1018.6mb 56f
3:40pm 16 18 mph 1019mb 55f
3:30pm 15 17 mph 1018.6mb 55f
3:20pm 14 15 mph 1019mb 55f
3:10pm 15 17 mph 1019mb 55f
3:00pm 16 18 mph 1019mb 55f
2:50pm 16 17 mph 1019.3mb 55f
2:40pm 14 16 mph 1019.3mb 55f
2:30pm 14 16 mph 1019.3mb 55f
2:20pm 11 14 mph 1019.6mb 55f
2:10pm 11 13 mph 1019.6mb 55f
2:00pm 10 14 mph 1019.6mb 54f
1:50pm 10 13 mph 1019.6mb 54f
1:40pm 11 14 mph 1019.6mb 54f
1:30pm 10 14 mph 1019.6mb 54f
1:20pm 11 14 mph 1020mb 55f
1:10pm 8 9 mph 1020.3mb 55f
1:00pm 7 10 mph 1020.3mb 54f
12:50pm 8 10 mph 1020mb 54f
12:40pm 7 10 mph 1020.3mb 54f
12:30pm 7 10 mph 1020.7mb 54f
12:20pm 7 9 mph 1020.7mb 53f
12:10pm 7 8 mph 1020.7mb 54f
12:00pm 7 9 mph 1020.7mb 54f
11:50am 5 10 mph 1020.7mb 53f